User: anonymous   Login
Location: Shell Point
(30.0571°N, 84.2896°W)
Time: 08:57:25
(UTC-04:00)
Language:

Meteor 2-19 Rocket - Orbit

View from above orbital plane
View from above orbital plane
View from above satellite
View from above satellite

Ground track
Ground track

The orbit data is extracted from the following two-line orbital elements,

1 20671U 90057B   15089.09338998  .00000046  00000-0  27767-4 0  9992
2 20671 082.5447 296.0351 0016502 074.1289 037.1825 13.84587682250969
Epoch (UTC): 30 March 2015 02:14:28
Eccentricity: 0.0016502
inclination: 82.5447°
perigee height: 935 km
apogee height: 960 km
right ascension of ascending node: 296.0351°
argument of perigee: 74.1289°
revolutions per day: 13.84587682
mean anomaly at epoch: 37.1825°
orbit number at epoch: 25096

The dashed part of the orbit path shows where the satellite is in the earth's shadow,  

DLR